Lid_Strength_Index
1 1 2 2 2 2 2 2 2 1 1 1 1 1 1 1 0 1 1 1 1 1 1 1 1 1 2 1 2 2 4 5 6 6 6 5 5 6 6 6 5 5 6
2 3 3 4 4 3 2 2 2 2 2 2 1 1 1 1 1 1 1 1 1 1 2 2 2 2 1 2 3 4 6 7 6 7 7 6 6 5 6 6 6 5 5
3 4 4 5 5 4 4 4 4 3 3 2 1 1 1 1 1 1 1 1 1 1 1 2 3 2 3 3 4 5 7 7 8 8 8 7 6 6 7 5 4 4 3
4 5 6 5 5 4 4 5 5 5 5 3 1 1 1 1 1 1 1 1 1 1 2 2 2 2 3 5 7 7 7 7 8 9 9 7 8 7 7 7 7 4 3
6 7 6 5 5 6 5 5 5 4 4 2 1 1 1 1 1 1 3 2 4 5 6 6 5 6 7 8 9 8 7 9 9 9 10 9 7 9 8 6 5 4 3
8 8 7 6 7 6 5 6 5 2 2 1 1 1 2 1 7 7 5 7 8 9 9 8 8 8 9 10 9 10 9 8 9 9 9 9 8 8 6 5 5 6 6
9 9 9 8 8 7 8 7 6 7 6 6 6 6 5 6 9 8 8 8 9 9 9 9 10 10 11 11 11 11 10 10 10 7 8 8 8 5 5 6 5 6 6
10 10 9 9 9 9 8 8 8 8 9 9 8 8 8 7 9 9 9 8 9 9 11 11 11 11 11 10 11 10 10 10 9 8 8 7 5 5 5 5 4 3 3
11 11 10 10 10 10 10 10 10 10 10 10 10 9 10 10 10 10 10 10 11 11 11 11 11 11 12 12 10 10 10 11 12 10 8 8 8 8 8 5 5 6 7
12 11 10 10 10 11 10 10 10 11 11 11 11 10 10 10 11 11 10 11 13 13 12 13 12 12 13 13 8 9 10 9 5 6 6 7 8 7 8 4 5 7 6
12 11 10 10 10 10 11 10 11 11 11 11 11 11 11 11 12 12 11 12 13 14 13 13 13 13 14 14 12 10 9 7 6 4 3 3 3 3 4 4 4 5 5
12 12 12 11 10 10 11 11 11 11 11 12 12 12 12 11 11 12 12 13 12 13 13 13 13 14 14 14 11 11 10 10 4 4 4 4 4 4 4 4 3 2 3
12 12 12 12 11 11 11 12 12 12 13 12 12 12 12 12 11 12 12 12 12 12 12 13 14 15 14 11 10 10 7 4 4 4 5 4 4 4 2 3 1 1 2
13 13 12 11 12 12 12 11 11 13 13 13 14 14 15 14 13 12 12 12 12 12 12 12 12 10 8 7 6 6 5 5 4 5 4 4 3 3 4 3 3 4 4
12 12 12 13 13 14 14 13 13 13 12 14 15 15 15 14 14 13 12 11 11 12 11 9 7 7 7 7 6 5 5 5 5 4 4 4 4 5 4 3 4 5 6
14 13 13 13 13 14 14 15 13 13 13 13 13 14 14 14 14 15 15 15 15 11 8 8 9 8 9 8 7 6 6 6 5 5 5 5 5 5 5 4 5 6 8
13 13 13 13 12 13 13 13 15 14 14 15 15 15 15 15 15 15 15 12 11 9 9 9 9 9 9 8 8 7 6 5 5 5 5 5 5 5 5 5 5 6 8
12 12 11 11 11 11 12 13 13 14 15 14 15 14 15 15 14 13 12 11 9 9 8 9 9 9 9 9 8 7 6 6 5 5 5 6 6 5 5 5 6 7 9
10 10 10 10 11 11 12 13 13 13 14 14 13 13 12 12 12 11 10 8 9 9 9 9 9 9 9 8 8 7 6 6 6 6 6 6 5 5 6 5 6 11 12
11 13 12 11 11 11 11 12 12 12 12 11 11 10 9 9 9 9 8 8 9 9 9 9 9 9 9 9 8 7 6 6 6 6 6 6 4 5 6 7 8 10 11
11 10 14 10 11 11 11 11 10 10 10 10 10 10 15 10 9 9 9 9 9 9 9 9 9 9 9 9 9 8 7 6 6 6 6 5 4 6 6 7 9 11 11
11 11 11 11 11 12 12 12 12 11 11 11 10 10 14 9 9 9 9 9 9 9 8 9 9 9 9 9 9 8 8 7 7 6 5 5 5 6 8 9 10 11 11
10 11 10 10 11 13 12 11 10 10 10 10 9 9 9 8 8 9 9 9 9 9 9 9 9 10 10 9 8 8 9 8 7 6 5 6 6 9 9 10 11 12 12
10 10 10 10 10 10 10 10 10 12 10 9 9 8 8 8 8 9 9 9 9 9 9 9 10 10 10 9 8 8 9 9 7 7 5 6 7 8 8 10 11 12 12
9 10 10 10 11 11 10 10 9 10 10 9 9 9 8 8 8 8 8 8 9 9 9 9 9 10 10 9 9 9 12 14 10 12 5 5 6 8 9 11 12 12 11
10 10 10 9 10 10 10 9 10 10 10 9 9 9 8 8 8 8 8 9 9 9 10 10 10 10 10 9 10 13 13 13 10 12 5 5 7 9 10 11 12 12 11